Temperature
6 7 7 7 7 7 7 7 8 9 10 9 10 11 12 12 12 12 12 12 13 13 13 12 12 12 12 12 12 12 12 12 12 12 12 12 12 12 12 12 12 11 11 11
7 7 8 7 7 7 7 7 8 9 10 9 10 10 12 12 12 12 12 12 13 13 12 12 12 12 12 12 12 12 12 12 12 12 12 12 12 12 12 12 12 11 11 11
6 7 7 7 7 7 7 8 8 8 9 10 9 10 12 12 12 12 11 12 12 12 12 12 12 12 12 12 12 12 12 12 12 12 12 11 11 11 11 11 12 12 11 11
7 7 7 7 7 7 7 8 8 8 8 8 9 9 12 12 12 12 12 12 12 12 12 11 11 12 12 12 12 12 12 12 12 12 11 11 11 11 12 12 12 12 11 11
7 7 7 7 7 7 7 8 8 8 8 8 9 9 11 12 12 12 12 12 12 11 11 11 11 12 12 12 12 12 12 12 12 12 11 11 11 11 11 11 11 12 11 11
7 7 6 7 7 7 7 8 8 8 8 7 9 9 11 11 11 12 12 12 11 11 11 11 11 11 11 11 12 12 11 11 11 11 11 11 11 11 11 11 11 11 12 12
7 7 7 7 7 7 7 7 7 7 8 9 10 9 10 11 11 11 11 11 11 10 10 10 10 11 11 11 11 11 11 11 11 11 11 12 12 12 12 12 12 12 12 12
5 6 7 6 6 6 7 7 6 7 8 9 9 9 11 11 11 11 11 10 10 10 9 9 9 10 10 10 11 11 11 11 11 11 11 12 12 12 12 12 12 12 13 13
5 6 7 6 6 6 6 7 7 6 7 7 9 10 10 10 10 10 10 10 10 9 9 9 9 9 10 10 10 11 11 11 11 11 12 12 12 12 12 12 13 13 13 13
4 4 6 6 6 6 7 6 6 6 6 8 9 10 10 9 9 10 10 10 9 9 9 9 9 9 9 9 10 10 10 11 11 11 11 12 12 13 13 12 13 13 13 13
4 3 5 6 6 6 6 6 6 6 6 7 8 10 9 9 9 9 9 9 9 8 8 8 8 8 9 9 9 10 10 10 11 11 11 11 12 12 12 12 13 13 13 13
4 4 4 6 6 6 5 5 5 5 5 6 7 9 10 9 9 9 9 8 8 8 7 7 8 8 8 9 9 9 10 10 10 11 11 11 12 12 12 12 13 13 13 13
3 3 4 6 6 5 5 5 5 4 5 6 6 8 10 9 9 8 8 8 8 7 7 7 7 7 8 8 8 9 9 10 10 10 11 11 11 12 12 12 12 13 13 13
4 3 4 5 5 5 4 4 5 4 4 6 7 8 9 9 8 8 8 7 7 7 6 6 6 7 7 7 8 8 9 9 10 10 10 11 11 11 12 12 12 12 12 12
3 3 3 4 5 4 4 4 5 4 5 5 6 7 8 8 8 8 7 7 7 6 6 6 6 6 6 7 8 8 9 9 10 10 10 11 11 11 11 11 12 12 12 12
2 2 3 3 4 4 4 5 5 5 5 5 6 6 8 8 7 7 7 6 6 6 6 5 5 5 6 6 7 7 8 8 9 10 10 11 11 11 11 11 11 11 11 11
2 1 2 4 4 4 4 5 5 5 5 5 5 6 7 7 7 7 6 5 5 5 5 5 5 5 5 6 6 7 7 8 8 9 9 10 10 10 11 11 11 11 11 11
1 1 2 3 3 3 6 6 5 5 5 5 5 6 6 6 6 5 5 5 5 5 4 4 5 5 5 6 6 6 7 7 8 8 9 9 10 10 10 10 11 11 11 11
2 1 2 2 3 4 6 5 4 4 5 5 5 5 5 5 5 6 5 4 4 4 4 4 4 5 5 5 6 6 6 7 7 8 8 9 9 9 10 10 10 10 10 10
1 1 1 2 2 3 6 5 4 4 4 5 4 4 4 4 5 6 4 3 3 3 3 4 4 5 5 5 5 6 6 6 7 7 8 8 9 9 9 10 10 10 10 10
1 1 1 2 2 4 5 4 4 4 5 4 4 4 4 4 4 4 3 3 3 3 3 4 4 5 5 5 5 5 6 6 6 7 8 8 8 9 9 9 9 9 9 9
2 2 1 2 2 3 5 4 4 4 4 3 3 3 3 3 2 2 2 2 2 3 3 3 4 4 5 5 5 5 5 6 6 7 7 8 8 8 9 8 9 9 9 9
2 3 3 3 4 6 4 4 3 3 3 3 3 2 2 2 2 2 2 2 2 2 2 3 4 4 5 5 5 5 5 5 6 6 7 7 7 8 8 8 8 8 9 9
3 3 2 2 4 4 3 3 2 2 2 2 1 1 1 1 1 1 1 1 1 2 2 3 3 4 4 5 5 5 5 5 6 6 6 6 7 7 7 8 8 8 8 8
3 2 2 2 3 4 3 3 2 2 1 1 1 1 1 1 1 1 1 1 1 1 2 2 3 3 4 4 4 5 5 5 5 5 6 6 6 6 7 7 7 8 8 8
2 2 2 3 4 3 3 2 2 1 1 1 0 0 0 0 -0 -0 0 0 0 1 1 2 2 3 3 4 4 4 5 5 5 5 5 5 6 6 6 6 7 7 8 8
Wind_Speed
3 4 5 8 9 11 12 14 17 16 14 13 17 20 20 17 16 16 16 16 16 16 15 14 15 16 16 16 17 18 18 18 16 14 14 13 14 14 13 14 17 18 17 18
4 5 7 9 10 11 12 14 16 14 11 12 16 20 19 15 15 15 15 14 14 14 12 12 13 14 15 17 18 18 19 19 18 15 14 13 13 13 14 13 16 18 18 18
7 7 7 8 10 10 12 13 13 14 16 12 13 15 14 10 10 10 11 12 12 11 12 12 12 14 15 16 18 16 18 19 19 18 13 12 11 11 12 14 14 17 19 19
6 5 7 10 10 10 12 10 11 13 12 8 8 9 11 8 8 8 10 10 10 9 10 11 12 13 14 15 15 16 17 17 18 18 16 17 16 15 15 15 14 16 18 19
7 7 9 10 9 10 9 12 12 13 11 10 10 8 8 6 7 7 8 8 9 9 9 10 11 12 13 13 13 14 16 17 18 19 19 19 17 16 13 15 17 17 17 18
8 7 7 8 10 9 10 10 10 8 6 6 7 7 6 4 6 7 6 6 7 7 7 8 8 9 10 10 11 12 15 17 18 19 20 21 21 19 18 19 18 16 14 15
7 4 4 5 8 6 7 7 4 3 3 5 4 6 6 6 6 7 6 6 5 5 5 6 7 8 9 10 12 12 15 17 18 19 20 21 22 22 21 20 19 17 15 15
7 7 5 5 7 7 7 5 4 5 5 8 6 6 4 6 6 6 6 6 6 5 5 6 6 7 8 9 11 13 14 16 17 19 20 20 22 18 17 20 18 18 16 16
6 7 7 8 8 6 5 4 5 5 7 7 6 5 5 6 6 6 6 6 6 6 6 6 6 6 7 8 10 13 15 15 16 17 19 19 21 21 20 20 19 17 16 15
5 9 9 8 5 3 5 6 4 3 4 6 8 7 4 5 6 8 9 9 9 8 8 7 7 6 6 7 8 10 14 15 15 16 17 16 19 21 20 19 20 19 19 18
5 6 8 7 5 7 5 3 4 4 5 5 7 5 2 5 7 9 10 10 10 10 9 8 7 7 6 6 6 8 11 13 14 15 16 17 18 19 19 18 19 19 19 19
4 5 8 10 7 6 5 5 4 4 5 6 7 7 2 5 8 10 11 11 11 10 9 8 8 7 6 6 6 6 9 11 13 14 15 16 17 17 18 19 19 19 19 19
4 4 8 6 2 1 4 5 6 7 7 8 9 8 4 8 10 12 13 13 12 11 10 9 8 7 7 6 6 6 7 9 11 12 13 14 16 18 19 19 19 19 18 18
6 6 9 12 13 10 12 13 11 9 8 11 14 17 16 15 15 15 14 14 13 12 11 10 9 8 8 7 6 6 7 7 9 11 12 14 16 17 17 17 18 18 18 18
4 8 12 17 19 17 19 19 16 15 15 14 17 19 19 18 17 16 15 14 13 13 11 10 10 9 9 8 7 6 7 7 8 10 11 13 13 14 15 16 17 17 17 17
3 7 11 15 14 15 19 20 19 17 17 19 21 21 17 17 15 15 14 13 13 12 12 11 11 10 10 9 8 7 7 6 7 9 11 11 11 13 14 14 15 15 16 16
5 5 6 10 12 13 12 11 12 11 12 13 16 17 16 16 15 15 13 12 12 13 12 12 11 10 10 9 8 8 7 6 6 7 9 10 10 12 13 12 14 15 16 15
8 6 5 8 9 9 5 3 7 11 13 12 13 15 14 15 15 14 11 12 13 13 13 12 11 10 10 9 8 8 6 5 6 6 7 8 10 11 12 13 13 14 14 14
12 8 5 5 8 12 10 5 4 8 11 8 11 13 14 14 14 12 8 11 13 13 12 11 11 11 10 9 8 7 5 5 5 6 7 7 8 10 11 12 13 12 13 13
9 10 7 7 8 9 6 2 4 6 7 4 7 10 11 12 11 10 12 14 14 12 11 11 11 10 9 8 7 6 5 5 5 6 6 7 8 9 10 12 12 11 11 12
5 7 11 13 11 11 7 2 2 5 6 5 8 9 10 10 11 14 15 14 13 12 12 11 10 9 9 8 6 6 6 6 6 5 5 6 7 8 9 10 10 10 10 11
8 7 8 7 9 9 2 2 4 8 8 9 11 11 12 13 14 15 15 15 14 13 13 12 11 10 9 7 6 6 7 6 4 4 5 5 6 6 7 9 9 10 11 11
10 10 6 9 11 9 5 8 9 9 11 13 13 13 14 15 16 16 15 15 14 14 13 12 12 11 9 7 6 7 7 5 4 4 4 4 5 5 7 9 10 10 10 10
8 9 9 12 15 15 13 13 11 10 12 14 14 15 15 16 17 16 15 15 14 14 13 12 11 10 9 8 7 7 6 5 4 4 4 4 5 5 6 7 8 9 10 10
12 8 11 16 18 16 14 13 13 13 14 15 15 15 15 15 16 16 15 15 14 13 13 12 11 10 10 8 7 6 5 4 3 4 4 4 5 6 6 5 6 7 8 10
13 14 13 14 14 12 14 13 13 14 15 14 15 15 15 14 15 16 15 14 13 14 13 12 11 10 10 8 6 6 5 4 4 4 4 4 4 5 6 6 3 3 5 8
Wind_Direction
296 263 274 288 279 278 284 282 286 289 291 284 275 276 275 273 269 264 261 257 248 247 242 232 227 222 216 213 210 205 200 195 189 186 186 186 187 183 184 185 185 186 186 187
300 282 292 295 289 281 278 281 288 294 292 290 283 281 278 268 264 262 258 257 252 246 237 226 221 218 213 211 209 205 201 197 194 192 190 191 189 188 186 185 187 189 189 190
300 300 307 300 303 294 284 279 288 295 301 289 286 283 273 268 259 259 259 258 257 250 235 225 220 216 213 210 207 204 201 199 197 192 188 187 189 188 187 188 188 191 192 193
303 306 306 302 302 299 295 292 290 290 292 292 284 288 281 273 265 258 254 253 253 255 243 230 224 219 214 212 207 204 201 199 197 193 192 191 194 194 194 189 188 190 194 195
304 309 310 306 308 303 296 302 291 285 283 284 269 265 279 279 274 265 258 258 258 255 246 234 229 224 219 213 208 204 201 200 198 197 196 198 203 200 193 188 188 190 193 196
288 291 294 299 304 295 297 300 289 271 268 266 268 258 284 295 285 283 273 270 272 270 261 252 243 235 228 219 211 207 204 204 200 200 200 202 204 199 193 189 188 190 192 195
324 303 298 303 314 311 312 318 313 292 265 278 294 265 275 315 308 294 295 296 297 296 290 275 259 242 233 223 213 208 209 208 203 202 204 206 206 201 199 195 191 190 191 195
324 316 330 324 316 308 306 298 301 303 298 306 294 264 288 323 322 316 313 312 317 321 319 305 287 263 244 229 219 211 212 212 206 204 206 209 206 203 203 201 195 194 195 196
318 302 311 311 303 291 302 293 291 287 286 282 275 277 291 337 351 358 353 345 347 340 335 326 313 287 261 243 228 217 215 217 210 208 208 210 207 204 203 202 199 198 197 194
299 292 303 314 299 263 281 300 292 275 290 285 288 283 297 342 348 351 351 349 345 339 334 332 325 309 284 258 243 230 221 220 215 212 211 210 208 206 204 202 200 198 196 192
290 283 300 310 307 304 297 284 290 281 278 285 291 296 341 332 331 334 337 337 335 336 332 328 325 314 298 273 253 239 228 224 218 215 215 210 209 208 204 204 202 199 196 193
286 279 287 289 285 285 266 274 284 288 285 276 280 282 324 323 328 327 327 330 329 331 329 328 327 321 307 290 269 252 236 227 220 217 218 213 209 207 206 206 203 199 196 194
288 270 295 299 256 250 281 274 275 280 276 266 266 271 302 318 321 321 318 321 324 328 330 330 327 321 313 293 277 264 250 236 224 220 220 215 208 205 207 207 203 198 195 193
284 253 253 274 289 296 288 282 274 262 259 265 261 276 291 304 311 314 314 314 317 323 327 327 322 320 315 304 285 273 264 251 233 220 219 214 209 206 206 205 203 197 194 191
268 265 261 268 276 278 275 277 273 258 252 260 272 281 289 299 306 309 309 309 311 316 319 322 320 318 316 308 296 283 274 261 242 224 221 216 211 206 203 203 200 196 193 191
252 268 280 277 273 276 274 271 268 263 258 258 269 277 287 297 302 305 308 309 309 311 312 315 316 316 313 308 298 291 282 269 248 229 222 215 208 203 200 199 196 193 191 189
242 255 275 281 295 292 271 265 258 257 253 258 265 276 295 300 302 305 308 310 309 309 309 310 309 308 309 306 298 287 280 272 251 234 222 210 205 203 196 193 193 191 188 186
235 242 260 283 296 265 271 301 279 273 269 263 270 285 296 300 302 300 301 308 308 308 307 307 305 306 305 303 298 289 281 268 245 231 220 209 203 201 195 191 191 190 187 185
219 227 250 262 274 278 281 280 275 275 278 274 283 295 302 306 300 291 305 313 309 306 304 302 302 301 300 300 299 289 283 274 253 234 218 209 206 200 195 192 190 188 184 183
206 220 240 249 264 271 285 337 317 287 274 298 305 305 311 317 306 309 323 315 310 307 306 305 302 298 297 300 298 287 283 275 259 244 224 213 207 201 197 194 190 184 182 179
200 216 231 245 255 267 278 293 305 271 301 324 307 305 306 302 297 305 311 311 310 309 307 307 301 296 295 296 294 287 282 277 266 249 232 217 207 201 197 192 186 179 175 171
219 221 222 230 243 258 224 209 245 278 305 299 300 301 300 298 300 304 306 307 309 309 309 310 304 295 293 292 288 284 283 286 278 248 232 217 207 196 188 183 180 174 169 168
223 224 237 231 248 282 264 254 269 283 287 295 296 298 299 299 301 303 303 304 304 304 307 308 303 297 292 288 282 281 286 290 281 255 231 215 205 190 181 178 176 173 171 170
239 234 244 258 262 270 275 275 278 283 286 291 293 295 296 295 298 300 300 302 303 303 305 307 306 297 293 291 284 279 284 284 264 247 227 208 194 185 181 177 176 176 177 173
248 237 246 258 269 278 270 267 276 286 289 292 294 292 290 292 294 296 297 300 301 301 302 302 300 295 291 290 285 282 280 277 260 240 221 208 196 183 178 177 183 184 188 181
239 233 243 259 266 268 279 286 287 286 287 292 294 294 293 291 293 295 294 297 297 298 301 301 299 296 293 290 285 281 274 265 250 233 219 208 198 185 170 160 145 138 164 159
Height
1471 1470 1463 1462 1461 1459 1455 1451 1445 1439 1437 1437 1430 1423 1418 1418 1418 1417 1415 1414 1414 1414 1416 1418 1420 1423 1426 1429 1432 1435 1439 1443 1448 1452 1457 1462 1466 1471 1476 1481 1486 1490 1495 1499
1468 1463 1462 1462 1459 1457 1454 1450 1443 1436 1433 1432 1425 1418 1413 1411 1411 1411 1410 1409 1409 1409 1411 1412 1415 1417 1419 1422 1426 1429 1433 1437 1442 1447 1452 1457 1462 1466 1471 1476 1481 1486 1490 1494
1467 1463 1462 1461 1457 1454 1450 1446 1441 1437 1432 1427 1424 1414 1406 1404 1405 1406 1406 1405 1405 1406 1406 1408 1410 1412 1414 1417 1420 1423 1427 1432 1436 1441 1447 1453 1458 1461 1466 1470 1475 1480 1485 1490
1464 1463 1462 1459 1455 1453 1447 1442 1440 1437 1433 1426 1423 1415 1400 1399 1399 1400 1401 1401 1401 1402 1403 1404 1405 1407 1409 1412 1415 1419 1422 1426 1431 1436 1440 1445 1448 1452 1457 1463 1469 1475 1480 1485
1464 1462 1461 1457 1454 1453 1447 1442 1439 1434 1431 1428 1418 1418 1399 1396 1396 1395 1396 1397 1398 1399 1399 1400 1401 1402 1405 1407 1410 1413 1417 1421 1425 1429 1434 1439 1443 1448 1454 1459 1464 1470 1475 1480
1465 1463 1461 1457 1454 1451 1447 1442 1434 1430 1429 1427 1414 1412 1399 1395 1395 1393 1393 1394 1395 1396 1396 1396 1397 1399 1401 1403 1405 1409 1412 1416 1420 1424 1428 1433 1437 1443 1448 1452 1458 1463 1469 1474
1462 1460 1459 1458 1453 1448 1447 1443 1435 1428 1423 1415 1409 1409 1401 1397 1396 1395 1394 1394 1393 1393 1393 1393 1393 1394 1395 1397 1400 1402 1406 1410 1414 1418 1422 1426 1431 1436 1441 1446 1451 1457 1462 1467
1468 1458 1457 1457 1456 1452 1447 1446 1443 1435 1421 1411 1408 1404 1398 1397 1396 1395 1394 1393 1392 1392 1391 1390 1390 1390 1391 1392 1394 1397 1400 1403 1407 1411 1416 1420 1426 1430 1436 1441 1445 1450 1455 1461
1472 1462 1457 1457 1455 1453 1447 1443 1442 1440 1428 1423 1405 1399 1398 1397 1395 1394 1393 1392 1391 1390 1389 1388 1387 1387 1388 1388 1390 1392 1395 1398 1401 1405 1409 1414 1419 1423 1429 1434 1440 1445 1450 1455
1477 1471 1457 1456 1454 1451 1449 1446 1444 1440 1432 1418 1403 1397 1397 1397 1396 1395 1393 1392 1391 1390 1388 1386 1385 1385 1385 1385 1386 1388 1390 1392 1395 1399 1404 1408 1412 1417 1422 1427 1432 1438 1444 1449
1477 1474 1459 1454 1452 1449 1449 1448 1445 1440 1435 1425 1410 1399 1398 1399 1398 1396 1395 1393 1391 1389 1387 1385 1384 1383 1382 1382 1382 1383 1386 1388 1391 1394 1398 1401 1406 1410 1415 1420 1426 1431 1437 1442
1476 1472 1461 1452 1449 1450 1449 1447 1446 1445 1438 1430 1419 1405 1399 1399 1398 1397 1395 1393 1391 1388 1386 1384 1382 1380 1379 1378 1378 1379 1381 1383 1385 1388 1392 1395 1399 1404 1408 1413 1419 1425 1430 1436
1476 1472 1461 1444 1447 1450 1449 1447 1446 1446 1441 1430 1421 1405 1397 1398 1398 1398 1395 1392 1389 1387 1384 1381 1379 1378 1377 1376 1375 1375 1376 1378 1380 1383 1386 1389 1393 1397 1402 1406 1412 1418 1423 1429
1473 1468 1464 1453 1444 1447 1447 1443 1442 1444 1437 1424 1413 1402 1396 1397 1397 1395 1393 1390 1388 1385 1382 1379 1377 1375 1373 1372 1371 1371 1372 1373 1375 1378 1380 1383 1386 1390 1395 1400 1406 1411 1417 1422
1471 1464 1458 1452 1447 1445 1442 1437 1435 1434 1429 1424 1409 1403 1397 1397 1396 1394 1391 1388 1385 1383 1380 1378 1375 1373 1371 1369 1368 1368 1367 1368 1370 1372 1374 1376 1380 1384 1389 1394 1399 1405 1410 1415
1468 1463 1457 1448 1442 1440 1435 1428 1425 1423 1421 1416 1410 1403 1398 1397 1395 1392 1389 1386 1383 1380 1378 1375 1373 1370 1368 1366 1364 1364 1363 1363 1364 1366 1368 1371 1374 1378 1383 1388 1393 1399 1404 1409
1464 1462 1456 1440 1436 1434 1423 1416 1415 1414 1411 1410 1405 1399 1396 1394 1392 1389 1387 1384 1381 1378 1375 1372 1370 1367 1364 1362 1361 1360 1359 1359 1359 1361 1363 1365 1369 1373 1377 1382 1388 1392 1398 1404
1460 1458 1454 1443 1438 1432 1411 1412 1412 1410 1405 1405 1402 1398 1396 1393 1390 1387 1384 1381 1378 1375 1371 1369 1366 1363 1361 1359 1357 1356 1355 1355 1355 1357 1359 1361 1365 1367 1372 1377 1382 1387 1393 1398
1453 1454 1450 1444 1434 1418 1409 1410 1411 1408 1402 1401 1399 1396 1394 1391 1386 1381 1380 1378 1375 1372 1368 1365 1362 1360 1357 1355 1353 1352 1351 1351 1351 1352 1354 1357 1360 1363 1367 1372 1377 1382 1387 1393
1449 1450 1448 1440 1435 1418 1403 1408 1408 1407 1399 1398 1397 1395 1393 1389 1384 1377 1376 1374 1370 1367 1364 1361 1359 1356 1354 1352 1350 1349 1348 1347 1347 1349 1351 1353 1356 1359 1363 1367 1372 1377 1383 1388
1445 1445 1442 1434 1427 1410 1405 1407 1407 1405 1397 1397 1396 1394 1392 1388 1385 1380 1375 1370 1367 1363 1360 1357 1355 1352 1350 1349 1347 1346 1345 1345 1345 1346 1348 1350 1353 1356 1360 1364 1368 1373 1378 1384
1431 1431 1430 1426 1422 1409 1402 1405 1404 1400 1398 1396 1394 1391 1388 1385 1381 1377 1373 1368 1363 1359 1356 1353 1350 1348 1346 1345 1344 1342 1342 1342 1342 1343 1345 1347 1350 1353 1356 1360 1364 1369 1374 1379
1423 1419 1414 1413 1405 1399 1400 1400 1399 1398 1395 1393 1391 1388 1385 1380 1376 1373 1369 1364 1360 1356 1353 1349 1347 1344 1342 1342 1341 1340 1339 1339 1339 1340 1342 1344 1347 1349 1353 1357 1361 1365 1370 1374
1414 1414 1413 1407 1398 1397 1397 1395 1395 1394 1392 1389 1386 1384 1380 1376 1372 1368 1364 1360 1356 1352 1349 1346 1343 1341 1339 1338 1338 1337 1336 1336 1337 1338 1339 1341 1343 1346 1350 1353 1357 1361 1365 1370
1406 1407 1405 1399 1394 1393 1391 1390 1390 1388 1386 1384 1381 1378 1375 1372 1367 1364 1360 1356 1352 1349 1345 1343 1340 1338 1336 1335 1335 1334 1334 1334 1334 1334 1336 1338 1341 1343 1346 1350 1354 1358 1362 1366
1398 1398 1396 1390 1388 1388 1385 1385 1384 1383 1380 1378 1375 1371 1369 1366 1362 1359 1355 1352 1348 1345 1341 1338 1336 1334 1333 1331 1331 1330 1330 1331 1331 1332 1333 1335 1338 1340 1343 1346 1351 1356 1360 1365